Location: C.E.K. Mees Observatory
(42.7003°N, 77.4088°W)
Time: 04:14:07
(UTC-05:00)

Envisat - Pass Details

Date: 16 October 2017
Orbit: 764 x 766 km, 98.2° (Epoch: 12 December)

Event Time Altitude Azimuth Distance (km) Brightness Sun altitude
Exits shadow 20:46:19 56° 15° (NNE) 912 3.3 -26.6°
Drops below altitude 10° 20:50:25 10° 351° (N) 2,313 5.7 -27.3°
Sets 20:52:44 0° 350° (N) 3,244 6.5 -27.7°
